Weather in Gulbarga

India     17°19′57″N   76°50′25″E
temp.,
°C
wind,
m/s
gust,
m/s
humid.,
%
clouds,
%
prec.,
mm/h
press.,
hPa
HPBL,
m
11 may, tue
tue1123:30+33ese674338 0.9 1007514
02:30+32wsw344451 0.6 1005460
05:30+31wnw35516 0.6 1006287
08:30+32wnw334565 0.2 1008721
11:30+35nnw4433100 0.2 10081831
14:30+37nw232499 0.2 10051574
17:30+39w56205 0.2 10022762
20:30+35wsw683599 0.0 1004565
12 may, wed
wed1223:30+33sw5739100 0.0 1005437
02:30+32wsw4846100 0.0 1004378
05:30+30wnw484083 0.1 1005277
08:30+34nw45315 0.0 1007913
11:30+37wnw222486 0.0 10052564
14:30+39w322038 0.0 10023503
17:30+39wnw43194 0.0 10003581
20:30+37w5626100 0.0 1001934
13 may, thu
thu1323:30+35wsw693532 0.0 1002502
02:30+31nw81235100 0.1 1002707
05:30+29wnw3642100 0.9 1005306
08:30+32wnw662886 0.2 1007933
11:30+36wnw552168 0.2 10051718
14:30+38wnw43206 0.0 10022783
17:30+38wnw44215 0.0 10003033
20:30+37w34232 0.0 1002331
14 may, fri
fri1423:30+35sw57326 0.0 1003376
02:30+33wnw783692 0.0 1002896
05:30+31w353524 0.2 1003188
08:30+34nw45245 0.0 10051072
11:30+38nne221681 0.0 10032362
14:30+40se121524 0.0 9993623
17:30+40sse321798 0.0 9983702
20:30+35sse9113483 0.0 1001717
15 may, sat
sat1523:30+34s353596 0.4 1003753
02:30+32sse484396 0.0 1001551
05:30+31s3645100 0.0 1002654
08:30+34sse5637100 0.0 10041357
11:30+37se67315 0.0 10022292
14:30+40se7923100 0.0 9993822
17:30+38se8923100 0.0 9983468
20:30+35ene5830100 0.1 1001304